Home   Weather   Byron Bay   Past weeks
Flag for Australia

Past Weather in Byron Bay, New South Wales, Australia — Yesterday and Last 2 Weeks

Now
72 °F

Mild.


Feels Like: 72 °F
Forecast: 76 / 71 °F
Wind: 10 mph from Southeast

Location: Ballina Airport Aws

Current Time: Apr 20, 2019 at 8:29:37 am

Latest Report: Apr 20, 2019 at 6:00 am


Visibility: N/A

Pressure: 30.20 "Hg

Humidity: 83%

Dew Point: 67 °F

Location of Byron BayLocation

Past Weather in Byron Bay — Graph

°F

Byron Bay Temperature Yesterday

Maximum temperature yesterday: 77 °F (at 12:00 pm)
Minimum temperature yesterday: 67 °F (at 6:00 am)
Average temperature yesterday: 73 °F

High & Low Weather Summary for the Past Weeks

 TemperatureHumidityPressure
High82 °F (Apr 9, 12:00 pm)100% (Apr 17, 3:00 am)30.30 "Hg (Apr 17, 3:00 am)
Low58 °F (Apr 7, 5:00 am)48% (Apr 5, 3:00 pm)29.92 "Hg (Apr 9, 5:00 pm)
Average69 °F83%30.15 "Hg
* Reported Apr 5 7:00 am — Apr 20 6:00 am, Byron Bay. Weather by CustomWeather, © 2019

Note: Actual official high and low records may vary slightly from our data, if they occured in-between our weather recording intervals... More about our weather records

Advertising

Byron Bay Weather History for the Previous 24 Hours

Scroll right to see more
 ConditionsComfort  
Time TempWeatherWind HumidityBarometerVisibility
6:00 am
Sat, Apr 20
72 °FMild.10 mph83%30.20 "HgN/A
5:00 am71 °FMild.9 mph86%30.19 "HgN/A
3:00 am71 °FPassing clouds.12 mph87%30.19 "HgN/A
2:00 am71 °FMild.13 mph89%30.20 "HgN/A
12:00 am71 °FOvercast.10 mph87%30.22 "Hg2 mi
11:00 pm
Fri, Apr 19
72 °FMild.8 mph88%30.23 "HgN/A
9:00 pm72 °FPassing clouds.9 mph86%30.24 "HgN/A
8:00 pm72 °FMild.10 mph87%30.23 "HgN/A
6:00 pm70 °FOvercast.13 mph91%30.21 "Hg4 mi
5:00 pm72 °FMild.10 mph100%30.20 "HgN/A
3:00 pm75 °FOvercast.10 mph79%30.19 "HgN/A
2:00 pm76 °FMild.9 mph86%30.19 "HgN/A
12:00 pm77 °FOvercast.12 mph76%30.22 "HgN/A
11:00 am76 °FMild.14 mph73%30.25 "HgN/A
9:00 am76 °FOvercast.13 mph75%30.27 "HgN/A
8:00 am74 °FMild.10 mph83%30.26 "HgN/A
Weather by CustomWeather, © 2019

See weather overview